This is the latest recevied weather packets stored in our database for station/object SQ9SMC-13. If no packets are shown the sender has not sent any weather packets the latest 10 day(s).
| Time | Temp. | Humidity | Pressure | Rain* | Wind** | Luminosity | Snow |
|---|---|---|---|---|---|---|---|
| 1777999503 | 25° C | 22% | 1008.2 hPa | 0 mm | - | 33 W/m² | - |
| 1777999203 | 25.56° C | 22% | 1008.2 hPa | 0 mm | - | 37 W/m² | - |
| 1777998903 | 25.56° C | 23% | 1008.2 hPa | 0 mm | - | 45 W/m² | - |
| 1777998605 | 25.56° C | 22% | 1008 hPa | 0 mm | - | 63 W/m² | - |
| 1777998302 | 26.11° C | 22% | 1008.3 hPa | 0 mm | - | 60 W/m² | - |
| 1777998003 | 26.11° C | 21% | 1008.3 hPa | 0 mm | - | 79 W/m² | - |
| 1777997705 | 26.11° C | 21% | 1008.4 hPa | 0 mm | - | 74 W/m² | - |
| 1777997403 | 26.67° C | 20% | 1008.3 hPa | 0 mm | - | 83 W/m² | - |
| 1777997104 | 26.67° C | 19% | 1008.2 hPa | 0 mm | - | 133 W/m² | - |
| 1777996802 | 26.67° C | 19% | 1008.3 hPa | 0 mm | - | 147 W/m² | - |
| 1777996502 | 27.22° C | 20% | 1008.1 hPa | 0 mm | - | 156 W/m² | - |
| 1777996203 | 26.67° C | 21% | 1008.2 hPa | 0 mm | - | 166 W/m² | - |
| 1777995903 | 27.22° C | 20% | 1008.1 hPa | 0 mm | - | 180 W/m² | - |
| 1777995602 | 27.22° C | 20% | 1008.2 hPa | 0 mm | - | 199 W/m² | - |
| 1777995304 | 27.22° C | 20% | 1008.2 hPa | 0 mm | - | 212 W/m² | - |
| 1777995006 | 27.22° C | 19% | 1008.1 hPa | 0 mm | - | 193 W/m² | - |
| 1777994702 | 26.67° C | 20% | 1007.9 hPa | 0 mm | - | 127 W/m² | - |
| 1777994403 | 27.78° C | 19% | 1008.2 hPa | 0 mm | - | 187 W/m² | - |
| 1777994104 | 27.78° C | 19% | 1008.2 hPa | 0 mm | - | 286 W/m² | - |
| 1777993804 | 27.78° C | 20% | 1008.2 hPa | 0 mm | - | 302 W/m² | - |
| 1777993503 | 27.78° C | 18% | 1008 hPa | 0 mm | - | 311 W/m² | - |
| 1777993204 | 27.78° C | 18% | 1008.3 hPa | 0 mm | - | 330 W/m² | - |
| 1777992903 | 27.78° C | 17% | 1008.2 hPa | 0 mm | - | 347 W/m² | - |
| 1777992602 | 27.78° C | 17% | 1008.3 hPa | 0 mm | - | 345 W/m² | - |
| 1777992304 | 28.33° C | 16% | 1008.3 hPa | 0 mm | - | 372 W/m² | - |
* Rain latest hour (hover to see other rain measurements)
** Current wind speed in m/s (hover to see current wind gust speed)